sat.trackr.live / text

‹ back to catalog

STARLINK-2178

NORAD 47760 · 2021-017AQ

PAYLOAD ACTIVE UNKNOWN

§ Identity

Operator
Country
US
Launch date
2021-03-04
Launch site
AFETR
Launch vehicle
Mass (kg)
RCS (m²)

Purposes: comms

External: N2YO · Heavens-Above · Gunter

§ Orbital elements

Epoch: 2026-05-24T15:04:29.377056Z

Period
94.01 min
Inclination
53.1581°
Eccentricity
0.0001107
Mean motion
15.31716242 rev/d
Perigee alt
469.9 km
Apogee alt
471.4 km
Semi-major
6,848.8 km
B*
1.5087e-4
RAAN
223.5186°
Arg perigee
81.4579°
Mean anomaly
278.6547°
Rev number
28,932

§ Raw data

STARLINK-21781 47760U 21017AQ  26144.62811779  .00004322  00000+0  15087-3 0  99972 47760  53.1581 223.5186 0001107  81.4579 278.6547 15.31716242289324

JSON: /api/v1/satellites/47760 · /tle

For live sub-satellite position, see the globe view (requires WebGL).

§ Visibility from observer

Set your observer location to see the next 7 days of passes ≥ 10°. The values pass through the URL so the page stays shareable.

No JS? Fill the form by hand. The geolocation button needs JavaScript.